Regional Weather Roundup
Issued by NWS Mt. Holly, NJ

Home | Current Version | Previous Version | Text Only | Print | Product List | Glossary On
Versions: 1 2 3 4 5 6 7 8 9 10 11 12 13 14 15 16 17 18 19 20 21 22 23 24 25 26 27 28 29 30 31 32 33 34 35 36 37 38 39 40 41 42 43 44 45 46 47 48 49 50
000
ASUS41 KPHI 301210
RWRPHI

REGIONAL WEATHER ROUNDUP
NATIONAL WEATHER SERVICE MOUNT HOLLY NJ
800 AM EDT WED JUL 30 2014

NOTE:  "FAIR" INDICATES FEW OR NO CLOUDS BELOW 12,000 FEET WITH NO
SIGNIFICANT WEATHER AND/OR OBSTRUCTIONS TO VISIBILITY.

 * = STATION DOES NOT REPORT PRECIPITATION (E.G. RAIN, SNOW, ETC.)
        OR FOG.

NJZ015>026-301300-
SOUTHERN NEW JERSEY

CITY           SKY/WX    TMP DP  RH WIND       PRES   REMARKS
POMONA         MOSUNNY   64  57  78 MISG      30.04R
6HR MIN TEMP:  59; 6HR MAX TEMP:  65;

RIO GRANDE*    SUNNY     66  55  68 N6        30.05R
MILLVILLE      SUNNY     63  56  78 N3        30.05R
WRIGHTSTOWN    SUNNY     63  57  81 CALM      30.02R
MOUNT HOLLY    SUNNY     62  58  86 CALM      30.04R
TRENTON        SUNNY     61  55  81 CALM      30.04R
6HR MIN TEMP:  58; 6HR MAX TEMP:  63;


$$
NJZ001>014-301300-
NORTHERN NEW JERSEY

CITY           SKY/WX    TMP DP  RH WIND       PRES   REMARKS
SUSSEX         SUNNY     57  53  86 CALM      30.05R
ANDOVER*         N/A     55  54  96 SW3       30.06R
MORRISTOWN     MOSUNNY   59  57  94 CALM      30.04R
NEWARK         MOSUNNY   68  52  56 N5        30.03R
TETERBORO      SUNNY     66  53  63 N3        30.02R
CALDWELL       SUNNY     61  54  77 CALM      30.04R
SOMERVILLE     SUNNY     58  53  84 CALM      30.03R
ALLAIRE*       MOSUNNY   63  54  72 NW5       30.03S
TOMS RIVER*    SUNNY     63  54  72 CALM      30.04R

$$
PAZ043-044-047-054-055-060>062-066>071-301300-
EASTERN PENNSYLVANIA

CITY           SKY/WX    TMP DP  RH WIND       PRES   REMARKS
PHILADELPHIA   MOSUNNY   65  53  65 VRB3      30.05R
6HR MIN TEMP:  62; 6HR MAX TEMP:  66;

NORTH PHILA    SUNNY     65  54  67 NW5       30.06R
DOYLESTOWN     SUNNY     60  54  80 CALM      30.04R
QUAKERTOWN*    SUNNY     57  55  94 CALM      30.06R
POTTSTOWN      SUNNY     59  54  83 CALM      30.07R
LANCASTER      SUNNY     59  53  80 W7        30.06R
COATESVILLE    SUNNY     59  59 100 W3        30.07R
READING        SUNNY     60  54  80 CALM      30.05R
6HR MIN TEMP:  54; 6HR MAX TEMP:  60;

ALLENTOWN      SUNNY     59  53  80 CALM      30.05R
6HR MIN TEMP:  51; 6HR MAX TEMP:  59;

MOUNT POCONO   MOSUNNY   55  51  86 W3        30.07R
6HR MIN TEMP:  45; 6HR MAX TEMP:  55;

HAZLETON       SUNNY     55  52  88 CALM      30.10R
WILKES BARRE   SUNNY     56  50  80 CALM      30.06R

$$
DEZALL-MDZ008-012-015-019-020-301300-
DELAWARE AND EASTERN MARYLAND

CITY           SKY/WX    TMP DP  RH WIND       PRES   REMARKS
WILMINGTON     SUNNY     63  55  75 NW3       30.06R
6HR MIN TEMP:  57; 6HR MAX TEMP:  63;

DOVER          SUNNY     64  57  78 NW6       30.03R
GEORGETOWN     SUNNY     63  56  78 VRB5      30.06R
6HR MIN TEMP:  58; 6HR MAX TEMP:  63;

EASTON         SUNNY     66  66 100 CALM      30.09R
PATUXENT       SUNNY     65  56  72 NW8       30.06R
OCEAN CITY     SUNNY     64  58  80 NW5       30.05R
WALLOPS ISLAND SUNNY     67  58  72 N6        30.06R
CAMBRIDGE      SUNNY     64  57  77 CALM      30.05S

$$
PAZ001-021-NYZ056-072-MDZ011-DCZ001-301300-
OTHER NEARBY LOCATIONS

CITY           SKY/WX    TMP DP  RH WIND       PRES   REMARKS
HARRISBURG     SUNNY     61  54  77 CALM      30.06R
STATE COLLEGE  SUNNY     54  52  94 CALM      30.06R
WILLIAMSPORT   CLOUDY    57  53  86 CALM      30.05R FOG
BINGHAMTON     SUNNY     56  52  86 CALM      30.04S
NEW YORK CITY  SUNNY     65  55  70 VRB3      30.06R
BALTIMORE      SUNNY     62  52  69 W5        30.07R
WASHINGTON DC  MOSUNNY   65  52  62 N6        30.08R

$$



USA.gov is the U.S. government's official web portal to all federal, state and local government web resources and services.